Theta_e
296 296 295 295 295 295 294 293 289 282 286 286 288 291 290 290 290 290 290 290 292 292 293 294 295 296 296 297 297 298 298 298 298 298 298 298 298 298
294 295 295 295 295 294 293 292 291 288 286 289 290 290 290 289 289 289 289 288 289 290 291 293 293 293 294 294 295 296 296 297 297 296 296 296 297 297
293 293 293 295 294 293 293 292 291 290 285 287 289 289 286 286 286 288 287 283 282 289 290 291 291 292 292 292 293 293 294 294 294 295 295 295 295 295
292 292 292 294 293 293 292 291 290 290 287 285 285 285 285 285 285 283 283 282 278 287 288 288 289 290 290 291 291 291 292 292 292 292 293 293 293 293
292 293 292 293 292 292 292 291 289 290 286 283 284 285 285 284 283 279 278 278 283 284 286 286 287 288 289 289 290 290 290 290 291 291 291 291 291 291
292 292 293 293 292 291 291 290 290 286 284 282 285 284 284 284 284 280 281 284 283 283 283 284 284 285 286 288 288 288 289 289 290 290 289 289 289 289
287 289 291 291 291 292 291 289 289 286 284 283 284 283 283 282 282 283 282 283 283 283 278 274 275 276 278 282 285 287 288 288 289 289 289 289 288 287
285 285 288 287 290 292 293 292 290 286 284 281 284 283 283 283 284 283 283 281 280 282 283 272 272 272 274 279 287 287 287 288 288 288 288 288 287 286
286 285 285 288 288 289 291 292 291 291 289 285 283 284 284 284 284 283 283 283 282 282 283 271 270 271 273 277 286 286 286 287 287 287 287 287 287 285
286 286 285 285 287 287 287 287 286 286 286 286 284 284 284 283 285 285 284 283 281 281 282 276 270 271 272 272 284 284 285 285 285 286 286 286 286 284
285 286 285 282 287 289 286 285 285 284 288 288 288 288 289 288 286 285 283 282 281 281 281 282 277 273 272 271 274 283 283 283 283 284 285 285 285 282
285 285 285 286 288 290 286 285 283 282 283 282 280 283 284 286 288 284 284 282 281 280 280 281 280 279 273 272 270 271 274 281 281 282 283 284 284 278
284 284 285 288 289 290 289 285 284 282 284 281 279 278 280 280 280 280 280 279 283 281 280 280 281 281 281 275 269 269 270 271 272 274 279 282 282 281
284 285 285 288 289 290 289 288 288 284 282 280 280 278 278 278 278 279 277 277 279 280 274 281 282 281 280 268 269 269 267 268 268 271 271 277 279 279
284 285 288 288 289 289 290 289 285 283 281 280 279 277 277 278 278 277 275 274 275 275 275 278 281 278 273 268 267 266 269 268 268 268 271 271 269 271
282 284 286 287 287 287 285 288 284 283 282 281 279 276 277 277 277 277 275 274 270 273 276 277 273 273 269 268 267 266 265 267 267 268 268 268 270 271
273 281 281 282 282 282 283 284 283 283 281 280 278 276 276 276 276 277 277 276 271 275 275 275 272 273 271 270 266 265 265 265 265 265 267 266 268 269
269 275 271 278 282 282 283 283 282 282 282 281 278 276 276 276 276 277 278 277 274 273 274 274 269 270 270 271 273 266 264 264 264 263 264 263 267 270
267 266 279 272 274 283 284 283 282 282 282 281 279 276 276 276 277 277 277 278 274 268 268 268 270 270 272 268 268 276 265 263 262 263 262 263 263 269
266 267 270 272 273 275 284 284 283 283 282 281 279 278 277 277 277 277 278 278 272 268 268 270 272 275 270 270 266 267 276 263 260 260 262 262 266 275
267 267 272 273 273 275 276 285 284 282 282 281 280 278 277 277 277 278 278 277 272 268 271 270 269 269 267 264 267 265 266 275 270 263 260 258 260 263
268 271 272 274 275 275 277 285 285 283 282 282 280 279 278 278 277 277 278 276 272 269 269 268 267 269 268 265 263 261 262 264 269 276 277 271 262 263
268 271 274 275 277 275 282 284 284 284 282 282 281 280 279 277 278 278 278 276 275 271 271 268 267 268 264 262 263 260 260 261 261 265 266 276 278 278
Wind_Speed
1 1 1 1 1 0 1 3 4 3 4 3 2 3 3 3 2 2 4 7 6 6 8 9 11 12 13 15 16 18 19 20 21 22 23 24 26 27
2 0 1 1 2 0 1 2 2 4 3 2 1 3 4 4 1 3 4 4 5 5 6 8 10 11 13 14 16 17 19 20 21 22 23 24 25 27
2 3 4 2 1 1 1 1 2 3 3 1 1 3 3 4 2 2 4 2 3 5 5 8 9 10 12 13 15 17 18 20 21 23 23 24 25 26
5 4 3 2 3 3 3 2 2 2 3 3 1 2 3 2 3 3 3 1 2 3 5 7 8 9 11 13 15 16 17 19 20 22 23 24 24 26
4 6 5 4 4 3 3 2 1 1 2 3 3 1 2 2 3 2 1 1 1 4 4 5 6 8 11 12 14 15 17 19 20 21 23 23 24 25
4 5 5 5 5 4 4 4 3 2 2 2 2 2 2 2 3 2 3 2 2 1 3 4 5 6 9 11 13 15 16 18 19 21 22 23 24 24
4 4 5 5 7 6 3 4 4 2 2 2 2 2 2 3 6 3 3 2 2 1 0 2 1 2 4 9 7 13 15 17 19 20 22 23 23 24
4 4 5 5 6 6 7 7 6 4 4 3 3 3 4 3 5 4 3 3 3 2 2 2 1 3 2 4 11 13 14 16 18 20 21 23 23 24
3 4 4 3 4 4 6 6 7 8 6 5 4 5 4 5 5 6 5 3 2 2 1 2 1 2 2 3 10 12 14 15 17 19 21 23 23 23
3 4 5 5 5 5 5 4 4 1 1 3 4 5 4 5 7 5 4 3 1 1 1 2 1 2 2 2 9 13 13 14 17 18 21 22 23 22
3 4 3 3 7 10 5 5 3 1 3 5 4 3 5 11 7 4 4 4 4 2 1 1 1 1 1 2 3 10 13 15 15 18 20 22 24 20
3 3 4 5 8 10 5 5 5 3 4 4 4 6 8 5 6 3 3 4 3 2 2 2 1 1 4 1 3 2 4 13 14 16 18 21 25 8
4 2 2 7 8 9 11 5 5 7 7 5 4 4 4 3 2 3 1 3 4 1 1 1 1 1 1 3 3 2 2 4 4 6 15 19 22 19
4 5 3 7 7 9 8 9 12 10 5 5 4 2 4 2 1 3 3 4 4 3 1 1 1 1 0 2 2 4 3 3 3 4 4 10 14 18
3 6 8 8 6 5 9 13 13 6 6 4 4 2 2 3 4 3 4 5 6 4 3 2 2 2 2 2 2 3 4 4 3 3 5 4 4 5
4 4 5 4 3 2 2 9 6 6 6 5 4 3 3 3 2 2 2 1 3 2 5 6 4 3 1 1 2 2 2 2 4 3 3 4 4 3
2 3 1 2 2 2 2 4 5 5 5 4 5 4 3 4 2 2 2 2 2 3 2 3 5 5 4 3 2 1 3 3 3 3 4 4 4 4
3 2 2 2 2 3 4 4 4 6 5 6 5 5 5 5 5 3 2 1 2 2 2 2 1 2 3 5 8 2 2 2 3 4 2 2 5 5
3 2 5 3 3 3 3 5 5 6 5 5 6 6 5 5 7 5 4 4 2 2 2 2 2 1 2 0 3 8 2 3 4 4 2 1 2 5
3 4 4 4 4 3 4 5 5 5 6 6 6 7 6 6 6 6 5 4 3 2 2 1 1 0 3 4 3 2 6 1 2 3 4 3 6 12
4 4 5 5 4 4 3 5 6 7 7 7 7 7 7 7 6 6 6 6 5 3 3 2 1 2 3 2 4 4 4 6 2 1 2 2 3 5
4 5 5 5 5 5 4 7 6 7 7 7 7 7 7 7 7 7 7 7 4 3 2 2 0 2 3 3 2 1 3 4 5 6 4 4 2 4
4 5 5 6 6 4 6 7 8 7 7 7 7 7 8 7 7 7 6 6 7 5 3 2 1 2 2 3 3 1 4 4 4 5 4 11 8 6
Wind_Direction
94 338 88 50 349 223 164 153 152 156 233 212 149 115 121 130 252 105 77 27 42 42 43 39 37 32 27 24 24 21 17 16 11 7 5 1 360 360
168 218 293 171 190 247 243 149 142 150 149 162 156 136 149 126 171 102 89 64 55 51 42 42 38 31 27 23 23 19 14 13 11 7 4 1 0 359
191 213 223 213 193 197 237 201 165 153 130 104 108 104 105 130 103 78 87 56 356 73 60 44 40 31 27 24 23 21 13 13 9 7 3 1 360 358
191 205 228 214 195 213 190 203 205 179 134 149 129 126 111 150 130 94 71 71 351 44 64 50 29 30 24 20 23 19 15 14 10 8 4 1 360 359
200 201 200 205 206 196 204 206 216 185 135 133 138 130 111 161 97 70 159 236 30 25 37 33 29 16 26 20 23 18 15 15 11 8 5 4 1 0
228 216 203 206 201 204 205 207 190 143 126 108 119 121 143 150 132 148 215 242 210 172 25 29 40 22 18 17 20 18 16 14 11 8 6 5 3 3
272 244 224 216 212 205 181 190 170 158 136 139 120 140 156 160 190 155 201 201 219 241 205 306 344 352 355 352 3 17 12 13 10 9 7 5 3 5
284 265 250 232 230 217 205 184 175 178 192 166 147 191 177 164 179 176 183 181 231 180 194 293 130 326 323 321 14 15 9 12 9 8 8 5 3 5
301 296 269 249 233 206 209 184 195 206 191 180 187 207 175 171 171 202 200 193 247 156 184 286 330 326 283 325 3 12 9 10 9 9 7 5 3 3
260 263 266 250 224 200 182 184 192 191 156 156 196 207 192 171 172 186 183 177 82 129 183 245 296 277 324 306 11 22 14 14 10 12 9 7 3 0
272 264 248 251 238 213 181 169 146 175 143 130 137 150 188 178 167 134 167 180 213 210 218 272 208 315 340 309 316 13 15 18 12 14 10 8 4 356
289 280 274 255 262 223 188 169 166 175 130 85 50 61 52 98 132 146 156 192 217 200 189 189 205 74 344 306 309 338 332 13 5 12 11 11 9 356
315 282 262 286 264 241 200 175 176 145 142 113 100 87 82 54 59 68 97 154 223 226 153 132 142 139 273 305 313 326 346 334 342 352 0 5 12 11
311 316 269 284 283 248 209 192 164 143 136 138 137 137 121 110 60 77 70 66 49 68 42 101 100 150 283 333 304 332 329 324 346 335 335 344 357 3
335 331 308 267 283 271 221 188 155 154 152 157 164 159 136 139 120 82 63 65 65 33 27 40 92 78 70 159 240 313 354 321 343 332 324 337 333 341
303 320 331 257 237 256 202 186 162 166 165 168 154 118 117 144 133 134 140 153 89 21 23 37 45 95 105 70 129 326 305 334 334 333 325 309 328 336
292 302 300 327 296 146 155 162 155 156 158 145 144 145 142 161 155 150 135 160 105 132 108 36 38 63 64 128 49 351 317 323 308 315 4 325 312 329
56 241 276 226 228 252 171 167 171 176 170 155 152 158 163 175 160 169 156 156 135 147 133 162 78 16 26 25 67 356 341 315 320 331 1 8 318 317
157 223 246 233 222 198 200 183 184 188 166 169 165 162 165 172 162 179 179 184 128 120 146 153 138 119 88 177 304 46 68 318 321 349 353 308 265 291
178 198 225 227 218 197 196 201 186 174 181 177 171 167 167 180 173 186 186 177 134 123 110 108 207 181 139 193 164 270 15 56 47 319 322 306 261 286
214 219 222 225 231 209 193 202 190 187 187 182 178 172 170 177 188 182 187 165 128 122 157 154 185 72 89 63 42 349 314 344 149 142 299 41 328 325
202 221 227 227 222 211 198 218 202 188 188 189 183 176 177 180 189 178 183 163 154 124 108 86 121 71 63 96 159 309 314 319 345 1 33 89 137 355
207 208 228 233 230 205 210 218 221 200 190 189 182 180 173 181 187 182 165 153 141 123 136 122 81 57 71 89 109 57 348 337 356 354 332 13 23 334